Temperature
4 5 5 5 5 4 4 4 4 5 5 6 5 5 6 6 6 7 7 7 7 7 8 8 9 9 9 9 9 9 9 9 9 9 9 9 8 8 8 8 8 8 8 8
4 4 4 4 4 4 4 4 4 5 5 5 5 5 6 6 6 6 6 6 6 7 7 7 8 8 8 8 9 9 9 9 8 8 8 8 8 8 8 8 7 7 7 7
3 3 4 4 4 4 4 4 4 4 5 4 4 5 5 5 5 5 5 6 6 6 6 6 7 7 7 7 8 8 8 8 8 7 7 7 7 7 7 7 7 7 6 6
3 3 3 5 5 4 4 4 4 4 4 4 4 5 5 5 5 5 5 5 5 5 5 6 6 6 6 7 7 7 7 7 7 7 7 7 7 7 6 6 6 6 6 5
2 2 3 4 4 4 4 4 4 3 3 4 4 4 5 5 4 4 4 4 4 5 5 5 5 6 6 6 6 7 7 7 7 6 6 6 6 6 6 6 5 5 5 5
2 3 3 5 5 4 4 4 4 3 3 3 3 2 3 4 4 4 4 4 4 4 4 5 5 5 5 6 6 6 6 6 6 6 6 6 6 5 5 5 5 4 4 4
2 2 3 3 4 4 4 4 4 3 3 3 2 2 3 3 3 3 3 3 4 4 4 4 4 4 5 5 5 5 5 5 5 5 5 5 5 5 5 4 4 4 4 3
2 2 3 3 3 3 3 4 3 3 3 2 2 2 2 2 2 3 3 3 3 3 4 4 4 4 4 4 4 4 5 5 4 5 4 4 4 4 4 4 4 3 3 3
2 3 3 4 4 4 4 3 3 3 3 2 2 2 2 2 2 2 2 2 3 3 3 3 3 3 3 4 4 4 4 4 4 4 4 4 4 4 3 3 3 3 3 3
1 1 2 3 4 3 3 3 3 3 2 2 2 2 1 1 1 2 2 2 2 2 3 3 3 3 3 3 3 3 3 3 3 3 3 3 3 3 3 3 3 3 2 2
1 1 2 3 3 3 3 3 2 2 2 2 1 1 1 1 1 1 1 2 2 2 2 2 2 2 2 3 3 3 3 3 3 3 2 2 2 3 3 2 2 2 2 2
1 2 1 3 4 3 3 2 2 2 1 1 1 1 1 1 1 1 1 1 1 2 2 2 2 2 2 2 2 2 2 2 2 2 2 2 2 2 2 1 1 1 1 1
4 4 4 4 3 3 2 2 2 1 1 1 0 0 0 0 0 1 1 1 1 1 1 1 1 1 1 2 2 2 2 2 2 1 1 1 1 1 1 1 1 1 1 0
3 3 3 3 3 2 2 2 1 1 1 0 0 -0 -0 -0 0 0 0 0 0 0 0 0 1 1 1 1 1 1 1 1 1 1 1 1 1 0 0 0 0 0 0 -0
3 3 3 3 2 2 1 1 1 1 0 -0 -0 -0 -0 -0 -0 -0 -0 -0 -0 -0 0 0 0 0 0 0 0 0 0 0 0 0 0 0 0 0 -0 -0 -0 -0 -0 -1
2 2 2 2 1 1 1 1 0 0 -0 -0 -1 -1 -1 -1 -1 -1 -0 -0 -0 -0 -0 -0 -0 -0 -0 -0 0 0 -0 -0 -0 -0 -0 -0 -1 -1 -1 -1 -1 -1 -1 -1
2 1 1 1 1 1 1 0 0 -0 -0 -1 -1 -1 -1 -1 -1 -1 -1 -1 -1 -1 -1 -1 -1 -1 -1 -1 -1 -1 -1 -1 -1 -1 -1 -1 -1 -1 -1 -1 -1 -1 -1 -2
3 3 2 2 1 1 0 0 -0 -0 -1 -1 -1 -1 -1 -1 -1 -1 -1 -1 -1 -1 -1 -1 -1 -1 -1 -1 -1 -1 -1 -1 -1 -1 -2 -2 -2 -2 -2 -2 -2 -2 -2 -2
2 2 2 1 1 0 0 -0 -0 -1 -1 -1 -1 -1 -2 -2 -2 -2 -2 -2 -1 -1 -2 -2 -2 -2 -2 -2 -2 -2 -2 -2 -2 -2 -2 -2 -2 -2 -2 -3 -3 -3 -3 -3
1 1 1 1 0 0 -0 -0 -1 -1 -1 -1 -2 -2 -2 -2 -2 -2 -2 -2 -2 -2 -2 -2 -2 -2 -2 -2 -2 -2 -2 -2 -3 -3 -3 -3 -3 -3 -3 -3 -3 -3 -3 -4
1 1 1 0 0 -0 -1 -1 -1 -1 -2 -2 -2 -2 -2 -2 -2 -3 -3 -2 -2 -3 -3 -3 -3 -3 -3 -3 -3 -3 -3 -3 -3 -3 -3 -3 -3 -3 -4 -4 -4 -4 -4 -4
1 0 0 0 -0 -0 -1 -1 -1 -1 -2 -2 -2 -2 -2 -2 -3 -3 -3 -3 -3 -3 -3 -3 -3 -3 -3 -3 -3 -3 -3 -3 -3 -4 -4 -4 -4 -4 -4 -4 -4 -4 -5 -5
1 0 0 -0 -0 -1 -1 -1 -1 -2 -2 -2 -2 -3 -3 -3 -3 -3 -3 -3 -3 -4 -4 -4 -4 -4 -4 -4 -4 -4 -4 -4 -4 -4 -4 -4 -4 -5 -5 -5 -5 -5 -5 -5
0 0 -0 -0 -1 -1 -1 -1 -2 -2 -2 -3 -3 -3 -3 -3 -3 -3 -3 -3 -4 -4 -4 -4 -4 -4 -4 -4 -4 -4 -5 -5 -5 -5 -5 -5 -5 -5 -5 -5 -5 -5 -6 -6
0 -0 -0 -1 -1 -1 -1 -2 -2 -2 -2 -3 -3 -3 -3 -3 -3 -3 -4 -4 -4 -4 -4 -4 -4 -4 -5 -5 -5 -5 -5 -5 -5 -5 -5 -6 -6 -6 -6 -6 -6 -6 -6 -6
-0 -0 -1 -1 -1 -1 -2 -2 -2 -2 -2 -3 -3 -3 -3 -4 -4 -4 -4 -4 -4 -4 -5 -5 -5 -5 -5 -5 -5 -6 -6 -6 -6 -6 -6 -6 -6 -6 -6 -6 -6 -6 -6 -6
-1 -1 -1 -1 -1 -2 -2 -2 -2 -2 -3 -3 -3 -3 -4 -4 -4 -4 -4 -4 -5 -5 -5 -5 -5 -5 -5 -6 -6 -6 -6 -6 -6 -6 -6 -6 -7 -7 -7 -7 -7 -7 -7 -7
Wind_Speed
4 3 3 5 6 6 7 7 7 7 8 9 8 6 6 6 7 7 8 8 8 8 7 7 7 7 6 4 3 2 3 5 5 5 5 5 6 6 6 6 7 7 6 6
2 2 2 5 7 7 8 7 8 8 10 5 5 4 5 6 7 7 7 7 8 8 8 8 8 7 7 6 4 2 3 4 4 6 6 6 6 6 6 6 6 6 6 6
2 4 4 6 6 7 4 4 5 7 6 4 5 6 5 5 7 7 8 8 8 8 8 8 8 7 7 6 4 2 3 4 5 6 6 6 7 7 7 6 6 6 6 6
0 2 4 6 1 4 4 4 4 4 4 4 6 6 5 3 5 7 8 9 9 9 9 8 8 7 7 5 4 3 4 4 5 6 6 6 7 7 6 5 6 5 6 6
2 2 7 6 2 3 4 4 3 4 4 5 5 5 4 3 5 6 7 9 9 8 8 8 8 7 6 5 3 3 4 5 6 7 7 7 7 7 5 5 5 5 5 6
3 2 6 5 2 2 3 4 2 2 3 3 4 4 6 6 8 9 8 8 8 8 7 7 7 6 5 5 4 4 4 5 5 6 8 8 8 6 4 5 5 6 5 5
4 5 8 5 2 3 3 5 1 1 2 2 3 5 7 9 9 8 8 9 8 7 7 7 6 5 5 5 5 5 3 3 4 6 6 7 6 5 6 6 6 5 5 4
6 6 9 3 5 5 5 1 1 1 2 4 6 7 7 8 9 9 9 9 8 7 7 7 5 5 5 6 5 3 2 3 4 5 5 5 7 6 6 7 7 6 5 4
9 8 3 4 5 3 3 2 2 2 4 4 6 7 8 8 8 8 8 8 7 6 7 7 5 4 5 5 4 3 1 2 3 4 4 5 7 7 6 6 6 5 5 5
5 6 4 4 3 2 3 3 3 3 4 4 6 7 8 8 8 8 8 7 7 6 6 7 6 5 4 4 3 2 1 1 2 3 4 4 5 6 6 7 6 6 6 6
5 5 2 4 6 4 3 2 2 3 3 5 6 7 7 7 8 8 7 7 6 6 6 7 6 6 5 4 3 2 0 1 2 2 3 3 4 5 6 6 7 7 6 6
8 7 6 5 5 4 3 3 3 3 4 5 5 6 7 7 6 7 7 6 6 6 6 6 5 5 5 4 3 1 0 0 1 2 2 3 3 2 4 6 8 9 9 8
5 4 5 3 3 4 3 3 3 4 4 5 5 5 6 6 6 6 6 6 6 7 6 6 5 5 5 4 3 2 1 1 1 1 2 3 3 3 3 3 6 7 9 10
4 4 2 3 3 3 2 3 3 3 3 4 4 5 5 5 6 6 6 6 6 6 6 5 5 5 5 4 3 2 1 0 0 1 2 2 3 3 3 3 3 3 5 9
6 6 5 3 2 2 1 1 1 3 3 4 4 4 5 5 6 6 6 5 5 5 5 5 5 6 5 4 3 2 1 1 0 0 1 1 2 2 2 3 3 2 2 3
6 4 4 4 3 2 1 1 2 3 4 4 4 5 5 5 5 5 5 4 4 5 5 5 5 6 5 4 3 2 2 1 1 0 1 1 1 2 2 2 2 2 3 3
7 6 5 5 5 4 3 3 3 4 4 4 5 5 5 4 4 4 5 4 4 4 4 4 5 5 5 4 3 2 2 1 1 1 1 1 1 2 2 2 3 3 3 4
8 8 7 7 6 5 4 3 3 3 3 4 4 4 4 4 4 5 5 4 4 4 4 4 5 5 4 3 3 2 2 2 1 1 1 1 2 2 2 2 2 3 2 3
7 7 6 5 5 5 4 4 3 3 3 3 3 4 4 4 4 4 4 3 4 5 5 5 6 4 4 4 3 2 2 2 2 1 1 2 1 1 1 2 2 2 2 2
6 6 5 4 4 3 3 3 3 3 3 2 3 4 4 4 4 4 3 3 3 4 4 5 5 4 4 4 4 2 2 2 2 2 2 1 1 1 1 2 2 2 2 2
7 6 5 4 3 3 3 3 2 3 3 2 3 4 4 4 4 3 3 4 4 4 4 5 4 3 3 3 3 2 2 2 2 2 2 2 2 2 2 2 2 2 2 2
6 6 5 4 3 3 2 2 3 3 3 3 3 3 4 4 4 3 3 4 4 5 3 3 3 4 5 4 2 1 2 2 2 2 2 2 2 2 2 2 2 2 2 2
5 5 5 4 4 3 2 2 3 3 3 4 4 4 4 4 3 3 4 3 3 5 4 3 5 7 6 3 1 1 2 2 2 2 2 2 2 2 2 3 2 3 3 3
5 5 4 3 2 2 3 3 3 3 3 4 4 4 3 3 3 3 3 5 6 6 3 5 7 7 5 2 2 2 2 2 2 2 2 2 2 2 2 3 3 3 3 4
5 4 4 4 3 4 3 2 2 3 3 3 4 3 3 3 3 3 3 4 5 5 3 5 7 6 3 2 2 2 2 2 3 2 2 2 2 3 3 3 3 3 3 4
4 4 4 4 4 3 2 2 2 3 3 3 3 3 3 2 3 3 3 3 4 5 4 3 3 4 2 2 3 3 3 3 3 3 3 3 3 3 3 3 4 4 4 4
3 2 2 2 2 2 3 3 3 3 3 3 4 3 3 2 2 3 3 3 3 3 3 3 3 3 3 3 3 3 3 3 3 3 3 3 3 4 4 5 4 4 4 5
Wind_Direction
235 249 211 228 232 211 207 209 222 247 258 279 299 302 308 319 329 336 338 341 343 339 335 333 330 325 317 307 287 228 194 189 190 169 152 145 141 139 137 137 139 135 131 131
307 308 262 260 249 229 227 226 236 262 274 274 293 307 317 325 330 329 328 331 333 333 331 329 325 320 317 309 296 234 208 204 178 159 154 152 147 142 138 135 134 134 141 144
281 323 346 277 241 211 212 214 207 237 260 319 319 317 310 318 326 323 323 326 326 325 322 319 317 313 305 298 295 245 220 201 178 168 164 160 153 148 150 149 144 144 149 150
162 21 255 248 244 191 208 230 216 246 290 306 293 293 286 299 320 322 326 324 321 318 315 314 311 312 305 300 282 242 219 201 183 173 170 161 156 159 157 151 153 154 158 159
141 252 280 287 248 175 193 258 219 237 283 313 326 322 309 330 344 323 312 310 306 303 302 304 307 311 312 308 289 252 227 208 193 180 173 168 170 170 162 156 158 160 162 165
150 213 251 251 225 187 138 269 227 217 271 323 358 323 298 327 328 319 315 310 307 307 308 308 310 315 314 308 294 266 245 221 198 185 180 178 176 169 160 159 163 159 164 171
183 230 264 247 235 127 172 254 260 221 254 287 260 261 287 308 311 311 312 312 311 312 311 306 308 315 314 309 292 279 255 212 196 187 182 175 166 161 156 155 155 161 169 177
174 209 250 201 144 179 218 250 209 248 259 269 279 290 298 304 308 315 317 318 317 315 314 311 312 313 310 303 300 293 249 207 193 181 174 166 159 160 158 157 162 171 176 186
194 211 229 179 195 207 170 199 230 248 276 279 287 292 299 304 309 313 313 314 313 310 313 316 316 309 302 304 311 305 258 202 183 168 165 166 165 164 164 167 174 181 185 196
235 252 230 223 219 207 199 215 246 264 280 284 286 293 300 304 308 311 313 312 314 317 319 319 323 323 310 309 319 319 262 198 173 166 166 169 172 172 176 181 184 187 194 201
239 256 253 235 215 209 214 241 275 296 292 288 288 293 298 302 306 310 311 313 318 320 317 317 323 329 331 331 338 345 337 186 174 178 175 179 187 194 192 198 194 191 197 194
215 208 191 224 215 198 210 245 264 288 297 295 287 290 299 301 305 308 311 315 320 321 321 321 325 330 337 339 340 346 342 222 189 181 179 181 184 199 211 210 214 214 208 202
192 175 184 210 198 187 209 240 256 265 275 291 296 296 297 302 309 313 317 322 325 325 325 327 334 339 341 344 345 345 312 260 203 186 186 187 188 191 207 222 222 221 220 219
174 141 171 194 203 209 223 246 261 273 278 287 296 303 305 308 314 318 322 325 327 329 333 338 341 339 339 344 348 349 353 352 167 202 197 198 200 202 202 202 209 226 230 229
197 191 194 194 185 194 219 243 290 297 303 307 308 310 311 309 309 313 319 325 333 337 337 339 338 337 342 344 348 344 344 342 355 274 218 210 209 204 206 210 214 217 220 232
182 179 175 177 193 211 226 231 264 281 292 297 303 305 304 302 306 314 323 335 335 329 329 333 333 332 338 344 346 342 330 310 311 246 231 223 217 212 214 215 218 220 225 227
161 182 192 203 213 226 229 236 247 266 281 286 289 298 307 313 316 319 323 328 322 318 323 325 326 331 338 345 342 331 322 308 305 285 243 235 230 231 229 223 223 230 237 235
189 189 186 190 200 216 232 241 250 264 272 279 291 298 302 305 303 306 313 322 326 330 331 326 327 333 338 339 336 329 321 313 302 284 269 255 247 230 228 232 234 241 250 250
180 179 182 187 190 198 216 231 244 256 266 276 286 287 288 288 289 295 305 318 324 324 327 326 330 335 331 331 332 323 324 324 320 307 289 279 274 246 241 247 254 258 260 251
170 171 174 180 179 189 217 233 242 255 267 273 279 285 290 292 294 297 301 296 290 289 307 319 323 321 320 320 328 321 317 314 316 314 311 303 289 281 275 273 270 269 267 263
173 173 175 180 190 207 217 220 227 251 269 269 267 274 283 291 292 291 291 295 298 298 309 317 321 315 313 317 319 318 316 313 312 309 309 310 310 305 299 295 289 283 280 280
172 176 184 184 189 218 231 224 226 239 257 265 268 274 283 290 291 287 268 265 289 310 316 308 307 314 319 317 307 305 308 307 305 301 296 297 295 294 293 293 288 287 285 283
171 177 182 188 197 219 240 236 231 233 246 255 261 266 270 274 277 279 290 290 294 309 311 295 306 313 316 320 308 299 300 302 303 302 296 290 284 280 280 282 282 286 286 286
168 174 179 176 170 197 234 246 243 243 246 255 255 254 260 274 279 257 261 294 304 307 301 304 314 317 319 320 299 290 287 288 289 290 292 294 291 287 284 284 284 283 280 281
167 168 168 175 198 220 231 241 253 255 255 261 264 260 251 240 251 273 277 283 296 303 300 310 316 320 323 303 296 291 288 282 276 278 277 282 282 283 284 285 285 286 284 280
170 180 193 204 213 220 218 219 235 250 258 268 270 262 258 256 258 271 281 286 291 300 298 296 303 309 306 298 291 290 289 295 301 298 286 281 279 278 279 280 282 279 279 278
161 172 188 217 226 212 211 218 232 247 248 254 268 264 259 262 265 272 279 283 288 290 287 286 287 288 289 290 290 293 293 292 290 287 284 279 275 272 273 274 274 275 275 275
Height
1493 1492 1492 1492 1491 1493 1495 1495 1496 1489 1486 1480 1478 1477 1474 1472 1470 1468 1466 1464 1462 1460 1459 1458 1456 1455 1454 1454 1454 1453 1454 1455 1456 1458 1459 1461 1462 1464 1466 1468 1470 1472 1474 1475
1492 1491 1491 1491 1488 1489 1489 1488 1488 1486 1483 1478 1477 1475 1473 1472 1470 1467 1465 1464 1462 1460 1458 1456 1454 1453 1451 1450 1450 1450 1450 1451 1452 1453 1455 1457 1459 1460 1462 1464 1466 1468 1470 1472
1496 1494 1490 1490 1483 1483 1484 1483 1483 1483 1480 1477 1476 1474 1473 1471 1469 1467 1464 1462 1460 1458 1456 1454 1452 1450 1449 1447 1446 1446 1446 1447 1448 1450 1451 1453 1455 1457 1459 1461 1463 1464 1466 1468
1498 1496 1498 1483 1478 1478 1480 1479 1479 1478 1477 1476 1475 1472 1471 1470 1468 1466 1464 1461 1458 1456 1454 1452 1450 1448 1446 1444 1443 1442 1443 1443 1444 1446 1447 1449 1451 1453 1455 1457 1459 1460 1462 1464
1500 1500 1492 1481 1477 1477 1479 1477 1475 1476 1475 1474 1472 1470 1468 1468 1466 1465 1462 1460 1457 1454 1452 1449 1447 1445 1443 1441 1440 1439 1439 1439 1440 1442 1444 1445 1447 1449 1451 1453 1455 1457 1458 1460
1498 1496 1490 1477 1474 1474 1477 1476 1473 1472 1472 1472 1471 1472 1468 1466 1464 1461 1459 1457 1454 1451 1449 1446 1444 1442 1439 1437 1436 1435 1435 1436 1437 1438 1440 1441 1443 1445 1447 1449 1451 1453 1454 1456
1495 1495 1484 1475 1472 1474 1480 1475 1471 1470 1470 1470 1470 1470 1467 1463 1461 1459 1456 1453 1450 1448 1445 1443 1440 1438 1436 1434 1433 1432 1432 1432 1433 1434 1436 1438 1439 1441 1443 1445 1447 1449 1450 1452
1491 1492 1483 1470 1471 1473 1472 1469 1468 1468 1468 1468 1467 1465 1463 1461 1458 1455 1452 1449 1447 1445 1442 1439 1437 1435 1433 1431 1430 1429 1428 1428 1429 1430 1432 1433 1435 1437 1439 1441 1443 1445 1446 1447
1476 1473 1467 1466 1466 1467 1467 1467 1467 1466 1466 1465 1464 1462 1460 1457 1455 1452 1450 1447 1444 1442 1439 1436 1434 1432 1430 1428 1427 1426 1425 1425 1425 1426 1428 1429 1431 1433 1435 1436 1438 1440 1442 1443
1471 1465 1464 1464 1464 1465 1465 1465 1464 1464 1463 1462 1460 1458 1456 1454 1452 1449 1447 1444 1441 1439 1436 1433 1431 1429 1427 1425 1424 1423 1422 1422 1422 1423 1424 1426 1427 1429 1431 1432 1434 1436 1437 1439
1466 1462 1461 1460 1461 1461 1462 1462 1461 1461 1460 1459 1457 1455 1453 1451 1449 1446 1444 1441 1439 1436 1433 1431 1429 1427 1425 1423 1422 1421 1420 1420 1420 1421 1422 1423 1424 1426 1427 1429 1430 1432 1433 1434
1458 1454 1456 1455 1456 1458 1458 1458 1458 1457 1456 1455 1454 1452 1450 1448 1446 1443 1441 1438 1436 1433 1430 1428 1426 1424 1423 1421 1420 1419 1418 1418 1418 1418 1419 1420 1421 1422 1423 1425 1426 1428 1429 1430
1449 1450 1452 1452 1453 1454 1455 1455 1455 1454 1453 1452 1450 1449 1447 1445 1443 1441 1438 1436 1433 1431 1428 1426 1424 1422 1421 1419 1418 1417 1416 1416 1416 1416 1417 1417 1418 1419 1420 1421 1423 1424 1425 1426
1446 1448 1449 1450 1451 1451 1452 1452 1451 1451 1450 1448 1447 1445 1444 1442 1440 1438 1436 1433 1431 1429 1426 1424 1422 1420 1419 1418 1417 1416 1415 1414 1414 1414 1414 1415 1415 1416 1417 1418 1419 1420 1421 1422
1443 1444 1446 1446 1448 1448 1449 1448 1448 1447 1446 1445 1444 1442 1441 1439 1437 1435 1433 1431 1429 1427 1425 1423 1421 1419 1418 1416 1415 1414 1413 1413 1412 1412 1412 1412 1412 1413 1413 1414 1415 1416 1417 1418
1439 1441 1442 1443 1444 1445 1445 1445 1444 1444 1443 1442 1440 1439 1438 1436 1434 1432 1431 1429 1427 1425 1423 1421 1419 1418 1416 1414 1413 1412 1411 1411 1410 1410 1409 1409 1409 1410 1410 1411 1411 1412 1413 1414
1434 1436 1438 1439 1440 1441 1441 1441 1441 1441 1440 1439 1438 1436 1435 1433 1431 1430 1428 1427 1425 1423 1421 1420 1418 1416 1415 1413 1412 1411 1410 1409 1408 1408 1407 1407 1407 1407 1407 1407 1408 1408 1409 1410
1430 1432 1434 1435 1436 1437 1438 1438 1438 1437 1437 1436 1435 1433 1432 1430 1429 1427 1426 1424 1423 1421 1420 1418 1416 1415 1413 1412 1410 1409 1408 1407 1406 1405 1405 1404 1404 1404 1404 1404 1404 1404 1405 1405
1426 1429 1431 1432 1433 1434 1434 1434 1434 1434 1434 1433 1432 1430 1429 1428 1427 1425 1424 1422 1420 1419 1418 1416 1414 1413 1411 1410 1408 1407 1406 1405 1404 1403 1403 1402 1402 1401 1401 1401 1401 1401 1401 1401
1423 1425 1427 1428 1430 1430 1431 1431 1431 1431 1430 1430 1429 1427 1426 1425 1424 1423 1421 1420 1418 1417 1415 1414 1412 1411 1409 1408 1406 1405 1404 1403 1402 1401 1400 1399 1399 1398 1398 1398 1397 1397 1397 1397
1419 1422 1423 1425 1426 1427 1428 1428 1428 1427 1427 1426 1426 1425 1424 1423 1422 1420 1418 1417 1416 1415 1413 1411 1410 1408 1407 1405 1404 1403 1402 1400 1399 1398 1397 1397 1396 1396 1395 1395 1394 1394 1393 1393
1416 1418 1420 1422 1423 1424 1424 1424 1424 1424 1424 1423 1422 1422 1421 1420 1418 1417 1416 1415 1413 1412 1410 1409 1407 1406 1404 1403 1402 1400 1399 1398 1397 1396 1395 1394 1393 1392 1392 1391 1391 1390 1390 1389
1414 1416 1417 1418 1419 1420 1421 1421 1421 1421 1420 1420 1419 1418 1417 1417 1415 1414 1413 1412 1410 1409 1407 1406 1405 1403 1401 1400 1399 1398 1397 1395 1394 1393 1392 1391 1390 1389 1389 1388 1387 1387 1386 1385
1411 1413 1415 1416 1416 1417 1417 1418 1418 1418 1417 1417 1416 1416 1415 1414 1413 1412 1410 1409 1407 1406 1404 1403 1402 1400 1398 1397 1396 1395 1393 1392 1391 1390 1389 1388 1387 1386 1385 1384 1384 1383 1382 1381
1409 1411 1412 1413 1413 1414 1414 1414 1414 1414 1414 1413 1413 1412 1411 1410 1410 1408 1407 1406 1404 1403 1401 1400 1398 1397 1395 1394 1392 1391 1390 1389 1388 1387 1386 1385 1384 1383 1382 1381 1380 1379 1378 1377
1407 1408 1409 1410 1410 1411 1411 1411 1411 1411 1410 1410 1409 1409 1408 1407 1406 1405 1403 1402 1401 1399 1397 1396 1394 1393 1392 1390 1389 1388 1387 1386 1385 1383 1382 1381 1380 1379 1378 1377 1376 1375 1374 1373
1404 1405 1406 1407 1407 1408 1408 1408 1407 1407 1407 1406 1405 1405 1404 1403 1402 1401 1399 1398 1397 1395 1394 1392 1391 1389 1388 1387 1386 1385 1383 1382 1381 1380 1379 1377 1376 1375 1374 1373 1372 1370 1369 1368